Regional Weather Roundup
Issued by NWS

Home | Current Version | Previous Version | Graphics & Text | Print | Product List | Glossary On
Versions: 1 2 3 4 5 6 7 8 9 10 11 12 13 14 15 16 17 18 19 20 21 22 23 24 25 26 27 28 29 30 31 32 33 34 35 36 37 38 39 40 41 42 43 44 45 46 47 48 49 50
000
ASUS45 KCYS 011410
RWRWY

WYOMING REGIONAL WEATHER ROUNDUP
NATIONAL WEATHER SERVICE CHEYENNE WY
800 AM MDT WED JUL 01 2015

NOTE:  "FAIR" INDICATES FEW OR NO CLOUDS BELOW 12,000 FEET
WITH NO SIGNIFICANT WEATHER AND/OR OBSTRUCTIONS TO VISIBILITY.

WYZ001-011500-
YELLOWSTONE NATIONAL PARK

CITY           SKY/WX    TMP DP  RH WIND       PRES   REMARKS
LK YELLOWSTONE   N/A     58  50  75 CALM      30.36S
W YELLOWSTONE  NOT AVBL

$$
WYZ002>013-054>058-071-098>099-011500-
NORTHERN WYOMING

CITY           SKY/WX    TMP DP  RH WIND       PRES   REMARKS
JACKSON        PTSUNNY   55  48  76 CALM      30.28R
CODY           FAIR      70  55  60 CALM      30.14S
GREYBULL       FAIR      70  51  51 CALM      30.06R
WORLAND        FAIR      70  57  63 SW6       30.08R
SHERIDAN       FAIR      68  53  58 CALM      30.08S
BUFFALO        FAIR      74  50  42 NW6       30.15R
GILLETTE       FAIR      73  52  47 W6        30.09R
HULETT         FAIR      72  55  56 W5        30.08S
NEWCASTLE      FAIR      72  52  49 NW3       30.07R

$$
WYZ014>020-022>026-101>103-011500-
CENTRAL WYOMING

CITY           SKY/WX    TMP DP  RH WIND       PRES   REMARKS
BIG PINEY      FAIR      64  48  56 NE6       30.31R
PINEDALE       FAIR      61  46  59 NW5       30.31S
DUBOIS         FAIR      57  43  58 W9        30.29S
LANDER         FAIR      67  58  72 VRB3      30.16S
RIVERTON       FAIR      67  53  61 NW5       30.17S
CASPER         FAIR      68  54  60 SW9       30.17S
DOUGLAS        FAIR      66  56  70 N7        30.15R

$$
WYZ021-027>030-104>119-011500-
SOUTHERN WYOMING

CITY           SKY/WX    TMP DP  RH WIND       PRES   REMARKS
EVANSTON       FAIR      67  49  52 S5        30.30S
KEMMERER       FAIR      64  46  52 NW6       30.32R
FORT BRIDGER   MOSUNNY   73  48  40 W7        30.32S
ROCK SPRINGS   FAIR      66  54  65 CALM      30.27S
DIXON          FAIR      61  52  71 SE3       30.30R
RAWLINS        FAIR      61  57  87 E3        30.28S
SARATOGA       FAIR      64  52  63 SE6       30.30S
LARAMIE        FAIR      61  53  75 S3        30.31R
CHEYENNE       FAIR      71  54  54 NW7       30.20R
TORRINGTON     FAIR      72  57  59 W5        30.05R
PINE BLUFFS    FAIR      70  57  64 N9        30.13S

$$


USA.gov is the U.S. government's official web portal to all federal, state and local government web resources and services.